Track DUMMY SAT 2/BREEZE-M now! DUMMY SAT 2/BREEZE-M is classified as:
1 40355U 14085A 25187.35959096 -.00000172 00000-0 00000+0 0 9994 2 40355 9.4317 64.0263 0365922 346.1315 12.8539 0.94061087 36488